Location: Torch Lake Township
(45.0753°N, 85.3586°W)
Time: 13:23:46
(UTC-05:00)

Amateur Radio Satellites - All Passes

Search period start: 24 November 2017 12:53
Search period end: 25 November 2017 12:53
Location: Torch Lake Township, 45.0753°N, 85.3586°W

Satellite Date Start Highest point End Downlink Frequencies (MHz)
Time Altitude Azimuth
EO-79 24 Nov 12:58:56 13:01:42 17° 268° (W) 13:04:29 145.935-145.965
NANOSAT C BR1 24 Nov 12:59:26 13:02:24 18° 268° (W) 13:05:23 145.865
AO-91 24 Nov 13:03:55 13:09:14 62° 73° (ENE) 13:14:30 145.960
AO-85 24 Nov 13:09:53 13:14:25 48° 241° (WSW) 13:19:16 145.980
Oscar 19 24 Nov 13:12:12 13:17:17 76° 74° (ENE) 13:22:25 437.125/150
POLYITAN 1 24 Nov 13:16:54 13:18:16 11° 271° (W) 13:19:38 437.675
BUGSAT 1 24 Nov 13:23:28 13:27:26 41° 261° (W) 13:31:23 437.445
NO-84 24 Nov 13:27:45 13:28:50 11° 122° (ESE) 13:29:58 435.350 FM
BEESAT 2 24 Nov 13:30:59 13:31:38 10° 252° (WSW) 13:32:16 435.950
50 SAT 24 Nov 13:35:51 13:37:59 16° 94° (E) 13:40:06 437.505
ITAMSAT 1 24 Nov 13:38:45 13:39:21 10° 53° (NE) 13:39:57 435.822/435.867
O/OREOS (USA 219) 24 Nov 13:46:56 13:51:31 69° 296° (WNW) 13:56:08 437.305
ESTCUBE 1 24 Nov 13:53:26 13:55:47 14° 300° (WNW) 13:58:08 437.505/2401.250
VELOX 1 24 Nov 13:55:52 14:00:17 63° 287° (WNW) 14:04:40 145.980
AO-7 24 Nov 14:01:23 14:08:56 41° 58° (ENE) 14:16:32 .
Gurwin Techsat 1B 24 Nov 14:06:49 14:11:58 51° 260° (W) 14:17:11 435.225
M-CUBED/EXP-1 PRIME 24 Nov 14:08:55 14:12:33 64° 68° (ENE) 14:16:32 437.505
SPROUT 24 Nov 14:25:41 14:28:48 20° 296° (WNW) 14:31:53 437.525
DX 1 24 Nov 14:29:30 14:33:53 70° 102° (ESE) 14:38:14 434.975-435.025
AO-91 24 Nov 14:42:03 14:46:00 20° 270° (W) 14:49:56 145.960
Oscar 19 24 Nov 14:54:29 14:57:11 14° 271° (W) 14:59:54 437.125/150
NO-84 24 Nov 15:01:48 15:05:26 82° 144° (SE) 15:09:23 435.350 FM
UKube-1 24 Nov 15:03:40 15:08:02 82° 284° (WNW) 15:12:20 .
50 SAT 24 Nov 15:07:19 15:10:05 26° 290° (WNW) 15:12:48 437.505
ITAMSAT 1 24 Nov 15:12:38 15:17:47 63° 72° (ENE) 15:22:58 435.822/435.867
O/OREOS (USA 219) 24 Nov 15:30:32 15:31:50 11° 316° (NW) 15:33:07 437.305
MOZHAYETS 4 24 Nov 15:37:13 15:41:37 44° 99° (E) 15:45:59
M-CUBED/EXP-1 PRIME 24 Nov 15:46:40 15:47:30 11° 267° (W) 15:48:21 437.505
BEESAT 24 Nov 15:48:08 15:52:38 42° 99° (E) 15:57:08 436.000
AO-7 24 Nov 15:53:31 16:01:31 52° 258° (WSW) 16:09:37 .
DOVE 4 24 Nov 15:57:37 16:02:05 31° 66° (ENE) 16:06:41 437.250
YUBILEINY 24 Nov 15:58:25 16:06:41 41° 70° (ENE) 16:14:52 435.215
CUBESAT XI-V 24 Nov 15:59:25 16:02:49 19° 92° (E) 16:06:11 437.345
ITUPSAT 1 24 Nov 16:00:20 16:05:00 54° 101° (E) 16:09:39 437.325
DX 1 24 Nov 16:07:14 16:09:30 14° 300° (WNW) 16:11:47 434.975-435.025
RS-15 24 Nov 16:19:52 16:23:43 12° 91° (E) 16:27:34 29.354- 29.394
NO-84 24 Nov 16:39:52 16:43:11 27° 342° (NNW) 16:46:41 435.350 FM
XW-2C 24 Nov 16:52:46 16:55:10 17° 65° (ENE) 16:57:35 145.795 - 145.815
ITAMSAT 1 24 Nov 16:54:09 16:57:41 18° 269° (W) 17:01:14 435.822/435.867
LilacSat-2 24 Nov 16:59:06 17:01:56 21° 67° (ENE) 17:04:48 437.200
XW-2F 24 Nov 16:59:36 17:02:12 18° 66° (ENE) 17:04:47 145.980 - 146.000
KKS-1 24 Nov 17:02:25 17:05:29 18° 92° (E) 17:08:32 437.445
CUTE-I 24 Nov 17:12:24 17:17:06 32° 65° (ENE) 17:21:51 437.470
MOZHAYETS 4 24 Nov 17:15:01 17:18:28 22° 296° (WNW) 17:21:55
KAITUO 1B 24 Nov 17:20:16 17:23:14 24° 68° (ENE) 17:26:15 145.475/437.950
BEESAT 24 Nov 17:26:22 17:30:11 24° 296° (WNW) 17:33:58 436.000
DOVE 4 24 Nov 17:34:50 17:39:36 39° 264° (W) 17:44:33 437.250
CUBESAT XI-V 24 Nov 17:35:54 17:40:26 49° 289° (WNW) 17:44:57 437.345
ITUPSAT 1 24 Nov 17:39:02 17:42:26 20° 298° (WNW) 17:45:49 437.325
HO-68 24 Nov 17:41:11 17:47:32 35° 60° (ENE) 17:53:54 435.675
XW-2D 24 Nov 17:44:26 17:48:07 66° 75° (ENE) 17:51:52 145.860 - 145.880
YUBILEINY 24 Nov 17:55:16 18:03:39 50° 272° (W) 18:11:59 435.215
NUDT-PHONESAT 24 Nov 17:57:18 18:00:54 61° 75° (ENE) 18:04:32 437.300
XW-2B 24 Nov 17:59:23 18:03:06 85° 258° (WSW) 18:06:53 145.730 - 145.750
NO-84 24 Nov 18:18:29 18:21:33 20° 4° (N) 18:24:42 435.350 FM
CUTE 1.7 + AOD 2 24 Nov 18:20:21 18:24:16 39° 70° (ENE) 18:28:13 437.475
CUBEBUG 2 24 Nov 18:21:13 18:24:59 26° 67° (ENE) 18:28:39 437.445
RS-15 24 Nov 18:21:28 18:33:17 57° 113° (ESE) 18:45:03 29.354- 29.394
XW-2C 24 Nov 18:25:32 18:29:03 39° 262° (W) 18:32:36 145.795 - 145.815
XW-2F 24 Nov 18:32:38 18:36:03 35° 263° (W) 18:39:30 145.980 - 146.000
LilacSat-2 24 Nov 18:32:41 18:36:02 30° 264° (W) 18:39:25 437.200
KKS-1 24 Nov 18:38:00 18:42:18 48° 289° (WNW) 18:46:34 437.445
AAUSAT CUBESAT 2 24 Nov 18:39:06 18:41:56 18° 64° (ENE) 18:44:47 437.432
SEEDS 24 Nov 18:43:04 18:47:00 42° 71° (ENE) 18:50:59 437.485
STARS 24 Nov 18:50:52 18:55:16 85° 287° (WNW) 18:59:39 437.465
CUTE-I 24 Nov 18:52:05 18:57:03 38° 263° (W) 19:02:04 437.470
ZACube-1 24 Nov 18:52:15 18:55:01 17° 64° (ENE) 18:57:44 437.345
KAITUO 1B 24 Nov 18:54:02 18:57:07 25° 265° (W) 19:00:15 145.475/437.950
UWE-3 24 Nov 19:09:14 19:13:26 45° 71° (ENE) 19:17:31 435.000/436.395/437.385
nSIGHT-1 24 Nov 19:21:35 19:23:46 17° 135° (SE) 19:25:58 .
HO-68 24 Nov 19:28:01 19:35:00 53° 259° (W) 19:42:02 435.675
FO-29 24 Nov 19:29:05 19:32:21 13° 80° (E) 19:35:32 435.910
AO-73 24 Nov 19:39:16 19:43:18 43° 71° (ENE) 19:47:17 145.935
Oscar 11 24 Nov 19:51:08 19:55:09 40° 71° (ENE) 19:59:11 .
XW-2A 24 Nov 19:51:29 19:54:45 58° 260° (W) 19:58:03 145.665 - 145.685
NO-84 24 Nov 19:55:58 19:59:49 35° 24° (NNE) 20:03:44 435.350 FM
CUTE 1.7 + AOD 2 24 Nov 19:57:09 20:00:15 20° 268° (W) 20:03:22 437.475
CUBEBUG 2 24 Nov 19:57:22 20:01:28 33° 263° (W) 20:05:29 437.445
STRAND 1 24 Nov 20:05:00 20:10:05 60° 102° (ESE) 20:15:06 437.568
DELFI C3 24 Nov 20:08:30 20:10:27 13° 62° (ENE) 20:12:24 145.870
AAUSAT CUBESAT 2 24 Nov 20:13:06 20:17:03 44° 262° (W) 20:21:03 437.432
ISS 24 Nov 20:17:25 20:20:33 43° 143° (SE) 20:23:41 437.550
SEEDS 24 Nov 20:19:59 20:22:53 18° 268° (W) 20:25:49 437.485
Max Valier Satellite 24 Nov 20:24:35 20:26:04 12° 63° (ENE) 20:27:34 145.860
ZACube-1 24 Nov 20:26:46 20:30:56 50° 261° (W) 20:35:03 437.345
STARS 24 Nov 20:30:04 20:30:51 10° 303° (WNW) 20:31:39 437.465
SO-50 24 Nov 20:31:19 20:34:18 18° 111° (ESE) 20:37:18 436.795
RS-15 24 Nov 20:33:55 20:46:00 56° 318° (NW) 20:57:55 29.354- 29.394
UWE-3 24 Nov 20:47:03 20:50:04 18° 268° (W) 20:53:05 435.000/436.395/437.385
nSIGHT-1 24 Nov 20:56:27 20:59:40 73° 331° (NNW) 21:02:53 .
FO-29 24 Nov 21:11:02 21:18:52 67° 100° (E) 21:26:07 435.910
AO-73 24 Nov 21:16:50 21:19:43 18° 268° (W) 21:22:37 145.935
Oscar 11 24 Nov 21:28:16 21:31:27 20° 268° (W) 21:34:39 .
NO-84 24 Nov 21:33:13 21:37:22 58° 223° (SW) 21:41:33 435.350 FM
DELFI C3 24 Nov 21:40:46 21:44:42 60° 260° (W) 21:48:40 145.870
ESTCUBE 1 24 Nov 21:43:34 21:44:31 11° 57° (ENE) 21:45:29 437.505/2401.250
EO-88 24 Nov 21:44:33 21:48:09 74° 75° (ENE) 21:51:47 145.990 - 145.960
STRAND 1 24 Nov 21:45:08 21:48:48 20° 299° (WNW) 21:52:27 437.568
ISS 24 Nov 21:53:58 21:57:04 38° 341° (NNW) 22:00:10 437.550
Max Valier Satellite 24 Nov 21:55:52 21:59:26 54° 260° (W) 22:03:02 145.860
LO-87 24 Nov 21:57:40 21:59:36 14° 64° (ENE) 22:01:34 145.935 - 145.965
SO-50 24 Nov 22:09:53 22:14:18 59° 309° (NW) 22:18:47 436.795
O/OREOS (USA 219) 24 Nov 22:15:58 22:20:13 37° 59° (ENE) 22:24:24 437.305
PRISM 24 Nov 22:16:22 22:18:56 16° 91° (E) 22:21:30 437.425
UNISAT 6 24 Nov 22:31:19 22:35:36 69° 102° (ESE) 22:39:50 437.425
nSIGHT-1 24 Nov 22:33:28 22:36:16 26° 352° (N) 22:39:03 .
TIGRISAT 24 Nov 22:34:31 22:38:47 68° 101° (E) 22:43:00 435.000
RS-15 24 Nov 22:51:32 23:01:58 30° 350° (N) 23:12:06 29.354- 29.394
FO-29 24 Nov 22:56:41 23:03:16 31° 301° (WNW) 23:09:34 435.910
ESTCUBE 1 24 Nov 23:16:04 23:20:33 84° 74° (ENE) 23:25:04 437.505/2401.250
VELOX 1 24 Nov 23:20:01 23:22:55 17° 62° (ENE) 23:25:48 145.980
LO-87 24 Nov 23:29:12 23:32:39 44° 261° (W) 23:36:07 145.935 - 145.965
ISS 24 Nov 23:31:20 23:34:07 25° 2° (N) 23:36:53 437.550
SPROUT 24 Nov 23:43:55 23:47:55 40° 70° (ENE) 23:51:57 437.525
QB50P2 24 Nov 23:44:55 23:47:58 19° 93° (E) 23:50:59 145.880/145.840
AIST 2D 24 Nov 23:44:57 23:48:25 50° 100° (E) 23:51:52 435.315
PRISM 24 Nov 23:50:26 23:54:28 48° 289° (WNW) 23:58:28 437.425
SO-50 24 Nov 23:53:26 23:55:43 14° 331° (NNW) 23:58:00 436.795
PCSat 24 Nov 23:53:36 23:58:52 56° 116° (ESE) 00:04:11 145.827
O/OREOS (USA 219) 24 Nov 23:55:43 23:59:25 25° 257° (WSW) 00:03:06 437.305
UNISAT 6 25 Nov 00:09:46 00:11:45 13° 300° (WNW) 00:13:44 437.425
nSIGHT-1 25 Nov 00:10:16 00:13:07 28° 12° (NNE) 00:15:58 .
TIGRISAT 25 Nov 00:12:55 00:14:55 13° 299° (WNW) 00:16:55 435.000
UKube-1 25 Nov 00:26:30 00:28:25 13° 59° (ENE) 00:30:21 .
DUCHIFAT 1 25 Nov 00:27:04 00:30:57 36° 98° (E) 00:34:48 145.980
EO-79 25 Nov 00:39:32 00:43:43 67° 101° (E) 00:47:53 145.935-145.965
NANOSAT C BR1 25 Nov 00:39:55 00:44:04 59° 101° (E) 00:48:11 145.865
VELOX 1 25 Nov 00:54:33 00:58:55 56° 259° (W) 01:03:19 145.980
POLYITAN 1 25 Nov 00:56:03 01:00:16 82° 283° (WNW) 01:04:27 437.675
ESTCUBE 1 25 Nov 00:57:11 00:57:57 10° 273° (W) 00:58:42 437.505/2401.250
BUGSAT 1 25 Nov 01:03:23 01:06:33 22° 94° (E) 01:09:42 437.445
ISS 25 Nov 01:07:56 01:11:06 45° 21° (NNE) 01:14:16 437.550
RS-15 25 Nov 01:08:05 01:19:01 36° 24° (NNE) 01:29:26 29.354- 29.394
AIST 2D 25 Nov 01:19:42 01:21:10 12° 296° (WNW) 01:22:37 435.315
QB50P2 25 Nov 01:19:58 01:23:55 40° 290° (WNW) 01:27:50 145.880/145.840
SPROUT 25 Nov 01:20:49 01:23:58 20° 267° (W) 01:27:08 437.525
Oscar 19 25 Nov 01:22:17 01:26:19 23° 93° (E) 01:30:22 437.125/150
DX 1 25 Nov 01:26:27 01:30:49 77° 74° (ENE) 01:35:13 434.975-435.025
ITUPSAT 1 25 Nov 01:35:02 01:36:27 11° 56° (NE) 01:37:51 437.325
50 SAT 25 Nov 01:35:06 01:38:18 68° 258° (WSW) 01:41:33 437.505
PCSat 25 Nov 01:37:56 01:42:35 28° 316° (NW) 01:47:15 145.827
nSIGHT-1 25 Nov 01:46:24 01:49:37 84° 206° (SSW) 01:52:48 .
BEESAT 3 25 Nov 01:58:37 02:02:18 37° 118° (ESE) 02:06:01 437.485
UKube-1 25 Nov 01:59:31 02:03:50 76° 256° (WSW) 02:08:11 .
DUCHIFAT 1 25 Nov 02:03:12 02:06:23 22° 295° (WNW) 02:09:33 145.980
EO-79 25 Nov 02:16:55 02:18:56 13° 299° (WNW) 02:20:58 145.935-145.965
NANOSAT C BR1 25 Nov 02:16:59 02:19:18 15° 298° (WNW) 02:21:37 145.865
Gurwin Techsat 1B 25 Nov 02:20:43 02:25:58 55° 100° (E) 02:31:10 435.225
AO-91 25 Nov 02:29:13 02:33:44 85° 287° (WNW) 02:37:45 145.960
BUGSAT 1 25 Nov 02:38:22 02:41:57 32° 292° (WNW) 02:45:31 437.445
MOZHAYETS 4 25 Nov 02:40:41 02:45:07 53° 72° (ENE) 02:49:34
ISS 25 Nov 02:44:32 02:47:31 32° 219° (SW) 02:50:28 437.550
BEESAT 25 Nov 02:56:06 03:00:47 62° 72° (ENE) 03:05:30 436.000
Oscar 19 25 Nov 03:00:55 03:05:54 49° 291° (WNW) 03:10:52 437.125/150
CUBESAT XI-V 25 Nov 03:04:32 03:08:12 24° 65° (ENE) 03:11:54 437.345
DX 1 25 Nov 03:06:18 03:07:31 11° 271° (W) 03:08:46 434.975-435.025
ITUPSAT 1 25 Nov 03:08:41 03:13:28 79° 73° (ENE) 03:18:15 437.325
M-CUBED/EXP-1 PRIME 25 Nov 03:18:46 03:23:05 38° 103° (ESE) 03:27:24 437.505
BEESAT 2 25 Nov 03:20:07 03:24:07 78° 124° (SE) 03:28:12 435.950
RS-15 25 Nov 03:21:28 03:33:29 83° 53° (NE) 03:44:48 29.354- 29.394
nSIGHT-1 25 Nov 03:24:02 03:25:22 12° 228° (SW) 03:26:42 .
ITAMSAT 1 25 Nov 03:24:26 03:28:02 19° 91° (E) 03:31:35 435.822/435.867
AO-85 25 Nov 03:26:41 03:30:09 31° 116° (ESE) 03:33:45 145.980
BEESAT 3 25 Nov 03:36:30 03:39:55 26° 317° (NW) 03:43:20 437.485
AO-7 25 Nov 03:52:22 04:00:25 49° 101° (E) 04:08:26 .
Gurwin Techsat 1B 25 Nov 04:01:26 04:05:32 23° 298° (WNW) 04:09:38 435.225
KKS-1 25 Nov 04:02:08 04:05:37 23° 64° (ENE) 04:09:06 437.445
AO-91 25 Nov 04:08:47 04:09:15 10° 305° (NW) 04:09:42 145.960
STARS 25 Nov 04:15:24 04:17:31 13° 59° (ENE) 04:19:39 437.465
MOZHAYETS 4 25 Nov 04:19:39 04:22:35 17° 269° (W) 04:25:34
BEESAT 25 Nov 04:36:02 04:38:58 16° 269° (W) 04:41:54 436.000
CUBESAT XI-V 25 Nov 04:41:02 04:45:20 39° 262° (W) 04:49:42 437.345
ITUPSAT 1 25 Nov 04:49:55 04:51:51 12° 271° (W) 04:53:48 437.325
M-CUBED/EXP-1 PRIME 25 Nov 04:53:22 04:57:16 28° 299° (WNW) 05:01:13 437.505
SO-50 25 Nov 04:58:54 05:03:06 33° 44° (NE) 05:07:20 436.795
BEESAT 2 25 Nov 04:59:41 05:02:21 17° 323° (NW) 05:05:01 435.950
YUBILEINY 25 Nov 05:01:59 05:10:02 43° 86° (E) 05:18:08 435.215
ITAMSAT 1 25 Nov 05:02:46 05:07:54 61° 289° (WNW) 05:13:01 435.822/435.867
AO-85 25 Nov 05:07:03 05:10:31 29° 317° (NW) 05:14:10 145.980
DOVE 4 25 Nov 05:31:28 05:36:32 56° 99° (E) 05:41:18 437.250
RS-15 25 Nov 05:35:08 05:44:32 30° 258° (WSW) 05:53:35 29.354- 29.394
KKS-1 25 Nov 05:37:41 05:41:55 41° 261° (W) 05:46:11 437.445
AO-7 25 Nov 05:45:21 05:53:05 44° 301° (WNW) 06:00:49 .
STRAND 1 25 Nov 05:46:20 05:49:20 16° 58° (ENE) 05:52:20 437.568
STARS 25 Nov 05:48:50 05:53:16 75° 257° (WSW) 05:57:43 437.465
XW-2C 25 Nov 05:56:22 05:59:00 18° 92° (E) 06:01:38 145.795 - 145.815
XW-2F 25 Nov 06:02:42 06:05:30 19° 93° (E) 06:08:17 145.980 - 146.000
LilacSat-2 25 Nov 06:03:37 06:06:44 23° 94° (E) 06:09:50 437.200
KAITUO 1B 25 Nov 06:22:27 06:25:38 25° 95° (E) 06:28:47 145.475/437.950
SO-50 25 Nov 06:39:18 06:43:36 38° 242° (WSW) 06:47:57 436.795
XW-2D 25 Nov 06:48:37 06:52:27 75° 102° (ESE) 06:56:16 145.860 - 145.880
HO-68 25 Nov 06:53:42 06:59:47 29° 94° (E) 07:05:49 435.675
PCSat 25 Nov 06:57:00 07:00:23 16° 34° (NE) 07:03:43 145.827
YUBILEINY 25 Nov 06:58:24 07:06:45 47° 288° (WNW) 07:15:12 435.215
NUDT-PHONESAT 25 Nov 06:58:45 07:02:27 65° 100° (E) 07:06:09 437.300
XW-2B 25 Nov 07:03:38 07:07:28 76° 283° (WNW) 07:11:16 145.730 - 145.750
CUTE-I 25 Nov 07:06:26 07:11:50 74° 103° (ESE) 07:17:10 437.470
DOVE 4 25 Nov 07:09:58 07:13:43 21° 298° (WNW) 07:17:21 437.250
STRAND 1 25 Nov 07:22:42 07:27:52 80° 257° (WSW) 07:33:02 437.568
FO-29 25 Nov 07:24:30 07:30:52 39° 62° (ENE) 07:37:47 435.910
XW-2C 25 Nov 07:29:47 07:33:18 36° 289° (WNW) 07:36:50 145.795 - 145.815
XW-2F 25 Nov 07:36:14 07:39:41 33° 290° (WNW) 07:43:07 145.980 - 146.000
LilacSat-2 25 Nov 07:37:40 07:41:00 28° 291° (WNW) 07:44:19 437.200
CUTE 1.7 + AOD 2 25 Nov 07:38:19 07:42:35 61° 101° (E) 07:46:49 437.475
AO-7 25 Nov 07:40:50 07:43:42 12° 324° (NW) 07:46:35 .
CUBEBUG 2 25 Nov 07:45:36 07:49:33 41° 98° (E) 07:53:28 437.445
AAUSAT CUBESAT 2 25 Nov 07:53:11 07:56:37 24° 94° (E) 08:00:00 437.432
KAITUO 1B 25 Nov 07:56:24 07:59:32 25° 291° (WNW) 08:02:40 145.475/437.950
SEEDS 25 Nov 07:59:51 08:04:06 64° 101° (E) 08:08:19 437.485
ZACube-1 25 Nov 08:13:01 08:16:28 25° 94° (E) 08:19:55 437.345
XW-2D 25 Nov 08:25:34 08:26:02 10° 299° (WNW) 08:26:30 145.860 - 145.880
UWE-3 25 Nov 08:32:39 08:36:48 77° 102° (ESE) 08:40:58 435.000/436.395/437.385
NUDT-PHONESAT 25 Nov 08:34:45 08:35:47 11° 298° (WNW) 08:36:49 437.300
PCSat 25 Nov 08:39:22 08:44:48 69° 56° (NE) 08:50:12 145.827
HO-68 25 Nov 08:40:52 08:47:56 60° 293° (WNW) 08:54:56 435.675
XW-2A 25 Nov 08:43:15 08:46:37 76° 285° (WNW) 08:49:59 145.665 - 145.685
CUTE-I 25 Nov 08:47:45 08:51:16 18° 302° (WNW) 08:54:46 437.470
FALCONSAT 3 25 Nov 08:52:51 08:54:45 13° 165° (SSE) 08:56:37 435.103
AO-73 25 Nov 09:00:40 09:04:50 73° 103° (ESE) 09:09:01 145.935
STRAND 1 25 Nov 09:07:22 09:07:50 10° 274° (W) 09:08:18 437.568
PRISM 25 Nov 09:07:36 09:10:08 16° 62° (ENE) 09:12:42 437.425
FO-29 25 Nov 09:09:01 09:15:39 49° 263° (W) 09:23:01 435.910
Oscar 11 25 Nov 09:11:49 09:16:08 64° 101° (E) 09:20:27 .
CUTE 1.7 + AOD 2 25 Nov 09:15:30 09:17:56 15° 298° (WNW) 09:20:20 437.475
DELFI C3 25 Nov 09:16:38 09:18:55 15° 91° (E) 09:21:12 145.870
CUBEBUG 2 25 Nov 09:22:56 09:25:54 19° 295° (WNW) 09:28:50 437.445
Max Valier Satellite 25 Nov 09:25:18 09:26:36 11° 90° (E) 09:27:53 145.860
AAUSAT CUBESAT 2 25 Nov 09:28:20 09:32:06 32° 291° (WNW) 09:35:49 437.432
UNISAT 6 25 Nov 09:31:28 09:35:59 77° 75° (ENE) 09:40:26 437.425
TIGRISAT 25 Nov 09:34:31 09:39:02 75° 74° (ENE) 09:43:28 435.000
SEEDS 25 Nov 09:37:02 09:39:16 14° 298° (WNW) 09:41:30 437.485
ZACube-1 25 Nov 09:49:07 09:52:46 30° 291° (WNW) 09:56:26 437.345
BEESAT 2 25 Nov 09:59:13 10:01:31 15° 35° (NE) 10:03:48 435.950
UWE-3 25 Nov 10:11:22 10:12:40 11° 300° (WNW) 10:13:58 435.000/436.395/437.385
BEESAT 3 25 Nov 10:13:06 10:16:53 42° 49° (NE) 10:20:37 437.485
AO-85 25 Nov 10:15:34 10:17:47 13° 31° (NNE) 10:20:05 145.980
POLYITAN 1 25 Nov 10:18:01 10:19:03 11° 59° (ENE) 10:20:05 437.675
AIST 2D 25 Nov 10:21:08 10:23:58 24° 69° (ENE) 10:26:49 435.315
PCSat 25 Nov 10:23:54 10:27:38 19° 254° (WSW) 10:31:21 145.827
FALCONSAT 3 25 Nov 10:30:30 10:33:06 18° 181° (S) 10:35:43 435.103
HO-68 25 Nov 10:30:49 10:34:14 14° 313° (NW) 10:37:39 435.675
AO-73 25 Nov 10:38:52 10:40:30 12° 299° (WNW) 10:42:08 145.935
QB50P2 25 Nov 10:39:25 10:42:29 20° 64° (ENE) 10:45:33 145.880/145.840
PRISM 25 Nov 10:40:56 10:44:59 53° 259° (W) 10:49:05 437.425
EO-88 25 Nov 10:44:22 10:48:02 73° 101° (E) 10:51:41 145.990 - 145.960
Oscar 11 25 Nov 10:49:24 10:51:46 15° 298° (WNW) 10:54:08 .
DELFI C3 25 Nov 10:50:03 10:53:56 48° 287° (WNW) 10:57:45 145.870
LO-87 25 Nov 10:55:27 10:56:46 12° 90° (E) 10:58:06 145.935 - 145.965
Max Valier Satellite 25 Nov 10:57:08 11:00:43 52° 286° (WNW) 11:04:18 145.860
ESTCUBE 1 25 Nov 11:07:38 11:10:21 15° 90° (E) 11:13:03 437.505/2401.250
UNISAT 6 25 Nov 11:11:42 11:13:12 11° 272° (W) 11:14:40 437.425
TIGRISAT 25 Nov 11:14:38 11:16:12 12° 271° (W) 11:17:46 435.000
DUCHIFAT 1 25 Nov 11:20:23 11:24:12 35° 69° (ENE) 11:28:02 145.980
EO-79 25 Nov 11:33:18 11:37:29 63° 74° (ENE) 11:41:41 145.935-145.965
NANOSAT C BR1 25 Nov 11:33:22 11:37:29 55° 73° (ENE) 11:41:37 145.865
BEESAT 2 25 Nov 11:35:48 11:39:52 86° 58° (ENE) 11:43:51 435.950
POLYITAN 1 25 Nov 11:49:55 11:54:10 86° 256° (WSW) 11:58:25 437.675
BEESAT 3 25 Nov 11:51:14 11:54:08 20° 247° (WSW) 11:57:00 437.485
AO-91 25 Nov 11:52:38 11:55:48 16° 60° (ENE) 11:58:55 145.960
AIST 2D 25 Nov 11:54:21 11:57:05 21° 266° (W) 11:59:50 435.315
AO-85 25 Nov 11:54:32 11:59:07 56° 51° (NE) 12:04:02 145.980
BUGSAT 1 25 Nov 11:54:50 11:58:02 22° 66° (ENE) 12:01:13 437.445
Gurwin Techsat 1B 25 Nov 12:06:34 12:09:49 17° 58° (ENE) 12:13:04 435.225
FALCONSAT 3 25 Nov 12:09:46 12:11:28 13° 196° (SSW) 12:13:08 435.103
QB50P2 25 Nov 12:13:57 12:17:59 42° 261° (W) 12:22:01 145.880/145.840
LO-87 25 Nov 12:27:02 12:30:27 46° 287° (WNW) 12:33:50 145.935 - 145.965
O/OREOS (USA 219) 25 Nov 12:30:28 12:34:25 29° 104° (ESE) 12:38:22 437.305
Oscar 19 25 Nov 12:40:49 12:45:34 40° 68° (ENE) 12:50:21 437.125/150
VELOX 1 25 Nov 12:42:50 12:46:25 23° 94° (E) 12:49:58 145.980
ESTCUBE 1 25 Nov 12:43:03 12:47:31 59° 287° (WNW) 12:51:59 437.505/2401.250
